Grand Forks AFB, ND

2:21 PM CDT on July 24, 2017 (GMT -0500)
Grand Forks Air Force Base

Weather History for KRDR - October, 2012

Change the Weather History Date:

Monday, October 1, 2012

  Actual Average Record
Temperature  
Mean Temperature 56 °F -  
Max Temperature 70 °F 60 °F 84 °F (1997)
Min Temperature 44 °F 35 °F 21 °F (2003)
Degree Days  
Heating Degree Days 8    
Growing Degree Days 6 (Base 50)    
Moisture  
Dew Point 33 °F    
Average Humidity 42    
Maximum Humidity 61    
Minimum Humidity 21    
Precipitation  
Precipitation 0.00 in - - ()
Sea Level Pressure  
Sea Level Pressure 30.06 in    
Wind  
Wind Speed 9 mph (NW)    
Max Wind Speed 17 mph    
Max Gust Speed 22 mph    
Visibility 10 miles    
Events      
Averages and records for this station are not official NWS values.
T = Trace of Precipitation, MM = Missing Value Source: NWS Daily Summary

Daily Weather History Graph

Daily Weather History Graph

Search for Another Location

Airport or City:

Trip Planner

Search our weather history database for the weather conditions in past years. The results will help you decide how hot, cold, wet, or windy it might be!

Date:

Astronomy

Oct. 01, 2012 Rise Set
Actual Time 7:29 AM CDT 7:07 PM CDT
Civil Twilight 6:58 AM CDT 7:38 PM CDT
Nautical Twilight 6:22 AM CDT 8:14 PM CDT
Astronomical Twilight 5:45 AM CDT 8:51 PM CDT
Moon 7:33 PM CDT (10/1) 9:11 AM CDT (10/1)
Length of Visible Light 12h 39m
Length of Day
11h 38m
Full, 98% of the Moon is Illuminated
Oct 1
Full
Oct 8
Last Quarter
Oct 15
New
Oct 21
First Quarter
Oct 29
Full

Hourly Weather History & Observations

Time (CDT) Temp. Windchill Dew Point Humidity Pressure Visibility Wind Dir Wind Speed Gust Speed Precip Events Conditions
12:55 AM 53.6 °F - 38.3 °F 56% 30.02 in 10.0 mi NW 6.9 mph - N/A   Clear
1:55 AM 54.3 °F - 38.3 °F 55% 30.04 in 10.0 mi NW 6.9 mph - N/A   Mostly Cloudy
2:55 AM 57.6 °F - 39.0 °F 50% 30.04 in 10.0 mi NW 8.1 mph - N/A   Overcast
3:55 AM 57.9 °F - 40.1 °F 52% 30.05 in 10.0 mi NW 9.2 mph - N/A   Overcast
4:55 AM 57.7 °F - 40.5 °F 53% 30.05 in 10.0 mi NNW 9.2 mph - N/A   Overcast
5:55 AM 57.0 °F - 40.3 °F 54% 30.07 in 10.0 mi NNW 8.1 mph - N/A   Overcast
6:55 AM 54.1 °F - 38.8 °F 56% 30.08 in 10.0 mi NW 8.1 mph - N/A   Partly Cloudy
7:55 AM 49.1 °F - 36.0 °F 61% 30.10 in 10.0 mi NW 9.2 mph - N/A   Clear
8:55 AM 52.2 °F - 35.4 °F 53% 30.12 in 10.0 mi NW 11.5 mph - N/A   Clear
9:55 AM 57.6 °F - 35.8 °F 44% 30.13 in 10.0 mi NNW 9.2 mph - N/A   Clear
10:55 AM 61.9 °F - 35.4 °F 37% 30.13 in 10.0 mi NNW 12.7 mph - N/A   Clear
11:55 AM 64.9 °F - 32.9 °F 30% 30.13 in 10.0 mi North 13.8 mph 21.9 mph N/A   Clear
12:55 PM 67.1 °F - 29.1 °F 24% 30.11 in 10.0 mi North 17.3 mph 21.9 mph N/A   Clear
1:55 PM 68.4 °F - 28.2 °F 22% 30.09 in 10.0 mi NNW 15.0 mph 21.9 mph N/A   Clear
2:55 PM 69.1 °F - 29.3 °F 23% 30.08 in 10.0 mi NW 16.1 mph 20.7 mph N/A   Clear
3:55 PM 68.7 °F - 28.9 °F 23% 30.06 in 10.0 mi NNW 10.4 mph 19.6 mph N/A   Clear
4:55 PM 69.1 °F - 26.8 °F 21% 30.05 in 10.0 mi NNW 11.5 mph - N/A   Clear
5:55 PM 66.9 °F - 26.1 °F 21% 30.04 in 10.0 mi NNW 10.4 mph - N/A   Clear
6:55 PM 61.3 °F - 26.8 °F 27% 30.03 in 10.0 mi NW 3.5 mph - N/A   Clear
7:55 PM 50.0 °F - 26.1 °F 39% 30.01 in 10.0 mi Calm Calm - N/A   Clear
8:55 PM 44.1 °F 40.8 °F 25.7 °F 49% 30.01 in 10.0 mi WSW 5.8 mph - N/A   Clear
9:55 PM 48.2 °F - 27.9 °F 45% 30.01 in 10.0 mi WSW 3.5 mph - N/A   Clear
10:55 PM 44.1 °F 41.5 °F 29.5 °F 57% 29.99 in 10.0 mi WSW 4.6 mph - N/A   Clear
11:55 PM 44.6 °F 41.4 °F 29.5 °F 55% 29.97 in 10.0 mi WSW 5.8 mph - N/A   Clear